This is the latest recevied weather packets stored in our database for station/object WB4ZUT. If no packets are shown the sender has not sent any weather packets the latest 10 day(s).
| Time | Temp. | Humidity | Pressure | Rain* | Wind** | Luminosity | Snow |
|---|---|---|---|---|---|---|---|
| 1777896221 | 14.44° C | 75% | 1010.8 hPa | 0 mm | - | 55 W/m² | - |
| 1777895919 | 14.44° C | 77% | 1010.8 hPa | 0 mm | - | 51 W/m² | - |
| 1777895616 | 14.44° C | 77% | 1011.2 hPa | 0 mm | - | 51 W/m² | - |
| 1777895313 | 14.44° C | 77% | 1011.1 hPa | 0 mm | - | 45 W/m² | - |
| 1777895011 | 13.89° C | 77% | 1011.2 hPa | 0 mm | - | 39 W/m² | - |
| 1777894708 | 13.89° C | 77% | 1011 hPa | 0 mm | - | 35 W/m² | - |
| 1777894404 | 13.89° C | 78% | 1011 hPa | 0 mm | - | 29 W/m² | - |
| 1777894102 | 13.89° C | 78% | 1011 hPa | 0 mm | - | 23 W/m² | - |
| 1777893799 | 13.89° C | 79% | 1011.1 hPa | 0 mm | - | 19 W/m² | - |
| 1777893495 | 13.89° C | 80% | 1011.3 hPa | 0 mm | - | 17 W/m² | - |
| 1777893192 | 13.89° C | 79% | 1011.2 hPa | 0 mm | - | 12 W/m² | - |
| 1777892888 | 13.89° C | 79% | 1011 hPa | 0 mm | - | 7 W/m² | - |
| 1777892585 | 13.89° C | 79% | 1011 hPa | 0 mm | - | 4 W/m² | - |
| 1777892280 | 13.89° C | 79% | 1011 hPa | 0 mm | - | 1 W/m² | - |
| 1777891977 | 14.44° C | 78% | 1011 hPa | 0 mm | - | 0 W/m² | - |
| 1777891675 | 14.44° C | 78% | 1011.2 hPa | 0 mm | - | 0 W/m² | - |
| 1777891371 | 14.44° C | 77% | 1011.3 hPa | 0 mm | - | 0 W/m² | - |
| 1777891066 | 14.44° C | 78% | 1011.4 hPa | 0 mm | - | 0 W/m² | - |
| 1777890761 | 14.44° C | 77% | 1011.7 hPa | 0 mm | - | 0 W/m² | - |
| 1777890457 | 14.44° C | 76% | 1011.8 hPa | 0 mm | - | 0 W/m² | - |
| 1777890153 | 14.44° C | 76% | 1011.8 hPa | 0 mm | - | 0 W/m² | - |
| 1777889850 | 14.44° C | 75% | 1011.7 hPa | 0 mm | - | 0 W/m² | - |
| 1777889548 | 14.44° C | 74% | 1011.4 hPa | 0 mm | - | 0 W/m² | - |
| 1777889245 | 14.44° C | 74% | 1010.9 hPa | 0 mm | - | 0 W/m² | - |
| 1777888943 | 14.44° C | 74% | 1011.1 hPa | 0 mm | - | 0 W/m² | - |
* Rain latest hour (hover to see other rain measurements)
** Current wind speed in m/s (hover to see current wind gust speed)